Location: *
(47.8307°S, 178.3954°E)
Time: 08:07:40
(UTC+00:00)

SL-8 R/B - Pass Details

Date: 12 August 2024
Orbit: 651 x 661 km, 48.4° (Epoch: 18 September)

Event Time Altitude Azimuth Distance (km) Brightness Sun altitude
Exits shadow 16:54:49 73° 244° (WSW) 700 3.5 -23.6°
Maximum altitude 16:55:15 84° 175° (S) 677 3.6 -23.5°
Drops below altitude 10° 17:00:06 10° 86° (E) 2,087 7.4 -22.7°
Sets 17:02:27 0° 85° (E) 2,996 8.5 -22.3°
